{"data":{"norad_id":66816,"intl_designator":"2025-278AB","name":"STARLINK-36098","alt_names":[],"object_type":"PAYLOAD","status":"ACTIVE","operator":null,"country":"US","launch_date":"2025-12-01","launch_site_code":"AFETR","launch_vehicle":null,"mission":null,"orbit_class":"UNKNOWN","rcs_meters":null,"size_class":null,"mass_kg":null,"dimensions":null,"purposes":["comms"],"wikipedia_slug":null,"has_3d_model":false,"image_url":null,"decayed_at":null,"tle_current":{"epoch":"2026-09-19T21:16:42.091392Z","epoch_age_seconds":139456,"freshness":"FRESH","line1":"1 66816U 25278AB  26262.88659828  .00010315  00000+0  38376-3 0  9992","line2":"2 66816  43.0002  97.2350 0001205 288.8404  71.2317 15.27585757 44917","mean_motion":15.27585757,"eccentricity":0.0001205,"inclination_deg":43.0002,"raan_deg":97.235,"arg_perigee_deg":288.8404,"mean_anomaly_deg":71.2317,"bstar":0.00038376,"rev_number":4491,"period_min":94.266393451324,"perigee_km":482.20508671739,"apogee_km":483.85862841206,"semimajor_km":6861.1688575647,"source":"CELESTRAK","updated_at":"2026-09-21T09:00:36.018538Z"}}}